Location: Calberlah
(52.4230°N, 10.6240°E)
Time: 00:45:16
(UTC+00:00)

Cosmos 1408 Rocket - Pass Details

Date: 19 May 2025
Orbit: 594 x 625 km, 82.6° (Epoch: 15 June)

Event Time Altitude Azimuth Distance (km) Brightness Sun altitude
Rises 22:54:15 0° 345° (NNW) 2,887 8.6 -17.5°
Reaches altitude 10° 22:56:32 10° 340° (NNW) 1,972 7.3 -17.5°
Maximum altitude 23:00:43 48° 266° (W) 798 4.1 -17.5°
Enters shadow 23:02:23 31° 212° (SSW) 1,070 4.3 -17.5°
